Location: Isles
(48.9125°N, 2.8272°E)
Time: 12:49:39
(UTC+00:00)

Cosmos 2058 Rocket - Pass Details

Date: 03 February 2023
Orbit: 610 x 637 km, 82.5° (Epoch: 25 March)

Event Time Altitude Azimuth Distance (km) Brightness Sun altitude
Rises 17:59:51 0° 356° (N) 2,898 6.4 -11.9°
Reaches altitude 10° 18:02:14 10° 5° (N) 1,991 5.5 -12.3°
Maximum altitude 18:06:18 36° 73° (ENE) 987 3.6 -12.9°
Drops below altitude 10° 18:10:23 10° 141° (SE) 1,992 5.4 -13.6°
Sets 18:12:46 0° 150° (SSE) 2,898 6.3 -14.0°
